CAPE
1 0 0 0 0 0 0 0 0 0 0 0 0 0 0 0 0 0 0 0 0 0 0 571 1694 863 503 480 290 305 65 0 0 0 0 0 0 0 0 34 67 68 79 16 14 13 8 44 69
0 0 0 0 0 0 0 0 0 0 0 0 0 0 0 0 0 0 0 0 0 0 0 91 1654 1474 956 631 753 662 114 36 4 0 0 0 0 1 6 5 43 35 78 84 14 14 8 45 107
0 0 0 0 0 0 0 0 0 0 0 0 0 0 0 0 0 0 0 0 0 0 0 22 1520 1629 1053 678 770 709 189 193 122 44 1 0 0 5 4 3 8 15 42 53 32 51 48 5 117
0 0 0 0 0 0 0 0 0 0 0 0 0 0 0 0 0 0 0 0 0 0 0 11 1062 1413 991 701 702 869 485 287 147 106 64 26 34 48 11 4 2 44 68 31 160 93 69 73 110
0 0 0 0 0 0 0 0 0 0 0 0 0 0 0 0 0 0 0 0 0 0 0 30 851 1194 1069 791 825 955 783 700 210 107 84 80 91 98 90 9 3 4 5 55 28 202 437 466 504
0 0 0 0 0 0 0 0 0 0 0 0 0 0 0 0 0 0 0 0 0 0 0 0 230 1018 1335 759 809 625 559 478 222 197 227 132 140 127 114 131 63 11 6 99 23 229 493 721 779
0 0 0 0 0 0 0 0 0 0 0 0 0 0 0 0 0 0 0 0 0 0 0 0 0 0 0 0 19 46 53 64 79 142 171 165 175 165 154 166 125 74 51 107 118 266 383 647 727
0 0 0 0 0 0 0 0 0 0 0 0 0 0 0 0 0 0 0 0 0 0 0 0 0 0 0 0 0 0 0 3 33 108 164 181 167 190 204 174 155 100 84 144 173 264 375 511 747
0 0 0 0 0 0 0 0 0 0 0 0 0 0 0 0 0 0 0 0 0 0 0 0 0 0 0 0 0 0 0 4 15 7 29 30 2 1 60 131 164 152 151 241 276 408 536 584 605
0 0 0 0 0 0 0 0 0 0 0 0 0 0 0 0 0 0 0 0 0 0 0 0 0 0 0 0 0 0 0 0 0 0 0 9 3 0 13 70 164 130 182 342 324 561 693 624 372
0 0 0 0 0 0 0 0 0 0 0 0 0 0 0 0 0 0 0 0 0 0 0 0 0 0 0 0 0 0 0 2 7 5 1 24 64 11 19 15 22 11 107 115 416 536 415 286 455
0 0 0 0 0 0 0 0 0 0 0 0 0 0 0 0 0 0 0 0 0 0 0 0 0 0 0 0 0 0 0 4 8 2 0 2 6 5 0 0 0 2 0 28 51 42 144 346 313
0 0 0 0 0 0 0 0 0 0 0 0 0 0 0 0 0 0 0 0 0 0 0 0 0 0 0 0 0 0 0 1 1 0 0 0 0 0 0 0 0 0 2 16 49 117 226 249 388
0 0 0 0 0 0 0 0 0 0 0 0 0 0 0 0 0 0 0 0 0 0 0 0 0 0 0 0 0 0 0 0 0 0 0 0 0 0 0 0 0 0 1 13 11 166 238 457 611
0 0 0 0 0 0 0 0 0 0 0 0 0 0 0 0 0 0 0 0 0 0 0 0 0 0 0 0 0 0 0 0 0 0 0 0 0 0 0 0 0 0 0 5 0 122 307 542 483
0 0 0 0 0 0 0 0 0 0 0 0 0 0 0 0 0 0 0 0 0 0 0 0 0 0 0 0 0 0 0 0 0 0 0 0 0 0 0 0 0 0 6 9 93 335 446 523 593
0 0 0 0 0 0 0 0 0 0 0 0 0 0 0 0 0 0 0 0 0 0 0 0 0 0 0 0 0 0 0 0 0 0 0 0 46 32 0 0 37 59 103 164 192 319 324 520 620
0 0 0 0 0 0 0 0 0 0 0 0 0 0 0 0 0 0 0 0 0 0 0 0 0 0 0 0 0 0 0 0 0 0 0 8 40 12 73 26 126 130 139 204 180 377 422 571 585
0 0 0 0 0 0 0 0 0 0 0 0 0 0 0 0 0 0 0 0 0 0 0 0 0 0 0 0 0 0 0 0 0 0 5 19 39 1 125 142 87 258 162 269 248 392 497 523 517
0 0 0 0 0 0 0 0 0 0 0 0 0 0 0 0 0 0 0 0 0 0 0 0 0 0 0 0 0 0 0 0 1 0 1 12 41 62 81 174 181 193 231 283 337 315 332 420 315
0 0 0 0 0 0 0 0 0 0 0 0 0 0 0 0 0 0 0 0 0 0 0 0 0 0 0 0 0 0 0 0 0 1 0 10 56 16 30 60 110 141 195 192 180 220 328 273 183
0 0 0 0 0 0 0 0 0 0 0 0 0 0 0 0 0 0 0 0 0 0 0 0 0 0 0 0 0 0 0 2 0 2 1 1 2 37 17 8 26 53 52 50 60 53 94 121 9
0 0 0 0 0 0 0 0 0 0 0 0 0 0 0 0 0 0 0 0 0 0 0 0 0 0 0 0 0 0 0 0 0 0 0 3 24 52 54 31 28 48 21 33 57 5 15 50 2
0 0 0 0 0 0 0 0 0 0 0 0 0 0 0 0 0 0 0 0 0 0 0 0 0 0 0 0 0 0 0 0 0 0 0 3 28 37 80 41 42 38 10 27 5 0 1 0 1
0 0 0 0 0 0 0 0 0 0 0 0 0 0 0 0 0 0 0 0 0 0 0 0 0 0 0 0 0 0 0 0 0 0 0 9 18 26 29 38 37 19 18 23 20 1 1 0 1
0 0 0 0 0 0 0 0 0 0 0 0 0 0 0 0 0 0 0 0 0 0 0 0 0 0 0 0 0 0 0 0 0 0 0 1 1 5 11 23 3 1 38 23 30 23 15 2 0
0 0 0 0 0 0 0 0 0 0 0 0 0 0 0 0 0 0 0 0 0 0 0 0 0 0 0 0 0 0 0 0 0 0 0 0 0 0 0 0 0 0 8 31 12 16 2 6 0
0 0 0 0 0 0 0 0 0 0 0 0 0 0 0 0 0 0 0 0 0 0 0 0 0 0 0 0 0 0 0 0 0 0 0 0 0 0 0 0 0 0 0 0 0 0 0 0 0
0 0 0 0 0 0 0 0 0 0 23 0 0 0 0 0 0 0 0 0 0 0 0 0 0 0 0 0 0 0 0 0 0 0 0 0 0 0 0 0 0 0 0 0 0 0 0 0 0
0 0 0 0 0 0 0 0 0 14 9 1 0 0 0 0 0 0 0 0 0 0 0 0 0 0 0 0 0 0 0 0 0 0 0 0 0 0 0 0 0 0 0 0 0 0 0 0 0
CIN
-72 0 0 0 0 0 0 0 0 0 0 0 0 0 0 0 0 0 0 0 0 0 0 -83 -11 -17 -24 -25 -27 -18 -31 0 0 0 0 0 0 0 0 -67 -27 -40 -39 0 0 0 -5 -37 -18
0 0 0 0 0 0 0 0 0 0 0 0 0 0 0 0 0 0 0 0 0 0 0 -148 -9 -7 -13 -17 -12 -8 -20 -16 -1 0 0 0 0 0 0 0 -115 -39 -29 -52 0 0 0 -39 -12
0 0 0 0 0 0 0 0 0 0 0 0 0 0 0 0 0 0 0 0 0 0 0 -212 -26 -9 -7 -6 -2 -1 -5 -1 -35 -32 0 0 0 0 0 0 0 0 -83 -37 -30 -86 -94 -5 -26
0 0 0 0 0 0 0 0 0 0 0 0 0 0 0 0 0 0 0 0 0 0 0 -254 -26 -2 -6 -3 0 0 0 -1 -46 -3 0 0 0 0 0 0 0 0 -107 0 -11 -53 -70 -51 -32
0 0 0 0 0 0 0 0 0 0 0 0 0 0 0 0 0 0 0 0 0 0 0 -123 -24 -1 0 0 0 -1 0 0 -36 -8 0 0 0 0 0 0 0 0 0 -46 -2 -3 0 0 0
0 0 0 0 0 0 0 0 0 0 0 0 0 0 0 0 0 0 0 0 0 0 0 0 -56 -5 -2 -1 0 0 0 0 -26 0 -1 -1 -1 0 0 0 0 0 0 -9 0 -7 0 0 0
0 0 0 0 0 0 0 0 0 0 0 0 0 0 0 0 0 0 0 0 0 0 0 0 0 0 0 0 -25 -17 -19 -8 -7 -5 0 -1 -1 0 0 -3 -1 0 0 -3 -5 -2 0 0 -1
0 0 0 0 0 0 0 0 0 0 0 0 0 0 0 0 0 0 0 0 0 0 0 0 0 0 0 0 0 0 0 -12 0 -2 -6 -4 -2 -1 0 -1 -1 0 0 -8 -1 0 0 -1 0
0 0 0 0 0 0 0 0 0 0 0 0 0 0 0 0 0 0 0 0 0 0 0 0 0 0 0 0 0 0 0 -1 -7 -30 -40 -46 -65 -95 -32 -8 -1 0 0 -6 0 0 0 0 -1
0 0 0 0 0 0 0 0 0 0 0 0 0 0 0 0 0 0 0 0 0 0 0 0 0 0 0 0 0 0 0 0 0 0 0 -62 -47 0 -51 -13 -1 0 -19 0 0 0 0 0 -24
0 0 0 0 0 0 0 0 0 0 0 0 0 0 0 0 0 0 0 0 0 0 0 0 0 0 0 0 0 0 0 -10 -7 -5 -1 -2 -2 -32 -20 -20 -33 -40 -17 -24 -9 -7 -10 -28 -19
0 0 0 0 0 0 0 0 0 0 0 0 0 0 0 0 0 0 0 0 0 0 0 0 0 0 0 0 0 0 0 -12 -5 -6 0 -19 -3 0 0 0 0 -69 0 -73 -70 -86 -65 -28 -26
0 0 0 0 0 0 0 0 0 0 0 0 0 0 0 0 0 0 0 0 0 0 0 0 0 0 0 0 0 0 0 -3 -3 0 0 0 0 0 0 0 0 0 -45 -91 -72 -74 -34 -35 -21
0 0 0 0 0 0 0 0 0 0 0 0 0 0 0 0 0 0 0 0 0 0 0 0 0 0 0 0 0 0 0 0 0 0 0 0 0 0 0 0 0 0 -51 -115 -92 -52 -37 -20 -5
0 0 0 0 0 0 0 0 0 0 0 0 0 0 0 0 0 0 0 0 0 0 0 0 0 0 0 0 0 0 0 0 0 0 0 0 0 0 0 0 0 0 0 -111 0 -56 -36 -13 -6
0 0 0 0 0 0 0 0 0 0 0 0 0 0 0 0 0 0 0 0 0 0 0 0 0 0 0 0 0 0 0 0 0 0 0 0 0 0 0 0 0 0 -130 -55 -74 -27 -15 -8 -1
0 0 0 0 0 0 0 0 0 0 0 0 0 0 0 0 0 0 0 0 0 0 0 0 0 0 0 0 0 0 0 0 0 0 0 0 -98 -123 0 0 -125 -109 -89 -69 -57 -16 -28 -2 0
0 0 0 0 0 0 0 0 0 0 0 0 0 0 0 0 0 0 0 0 0 0 0 0 0 0 0 0 0 0 0 0 0 0 0 -96 -84 -115 -87 -124 -63 -53 -61 -44 -35 -9 -12 -4 0
0 0 0 0 0 0 0 0 0 0 0 0 0 0 0 0 0 0 0 0 0 0 0 0 0 0 0 0 0 0 0 0 0 0 -78 -57 -13 -46 -11 -6 -22 0 -14 -19 -11 -11 -1 0 -2
0 0 0 0 0 0 0 0 0 0 0 0 0 0 0 0 0 0 0 0 0 0 0 0 0 0 0 0 0 0 0 0 0 0 -42 -15 -1 0 -3 0 -1 -1 0 -1 -3 -3 -2 -1 -17
0 0 0 0 0 0 0 0 0 0 0 0 0 0 0 0 0 0 0 0 0 0 0 0 0 0 0 0 0 0 0 0 0 -70 0 -34 -6 -2 -6 -3 -7 -8 -1 -4 -1 0 -2 -2 -4
0 0 0 0 0 0 0 0 0 0 0 0 0 0 0 0 0 0 0 0 0 0 0 0 0 0 0 0 0 0 0 -88 0 -11 -83 -11 -85 -39 -35 -20 -25 -15 -11 -23 -9 -19 -4 -27 -25
0 0 0 0 0 0 0 0 0 0 0 0 0 0 0 0 0 0 0 0 0 0 0 0 0 0 0 0 0 0 0 0 0 0 0 -138 -103 -63 -47 -38 -16 -10 -17 -27 -34 -46 -28 -65 -8
0 0 0 0 0 0 0 0 0 0 0 0 0 0 0 0 0 0 0 0 0 0 0 0 0 0 0 0 0 0 0 0 0 0 0 -144 -179 -104 -80 -72 -53 -15 -10 -8 -38 -4 -27 -36 -92
0 0 0 0 0 0 0 0 0 0 0 0 0 0 0 0 0 0 0 0 0 0 0 0 0 0 0 0 0 0 0 0 0 0 0 -112 -119 -100 -104 -104 -84 -43 -11 -23 -48 -89 -54 0 -43
0 0 0 0 0 0 0 0 0 0 0 0 0 0 0 0 0 0 0 0 0 0 0 0 0 0 0 0 0 0 0 0 0 0 0 -15 -9 -156 -141 -161 -134 -104 -51 -54 -51 -67 -73 -60 0
0 0 0 0 0 0 0 0 0 0 0 0 0 0 0 0 0 0 0 0 0 0 0 0 0 0 0 0 0 0 0 0 0 0 0 0 0 -7 0 0 0 0 -145 -125 -113 -78 -90 -88 0
0 0 0 0 0 0 0 0 0 0 0 0 0 0 0 0 0 0 0 0 0 0 0 0 0 0 0 0 0 0 0 0 0 0 0 0 0 0 0 0 0 0 0 0 0 0 0 0 0
0 0 0 0 0 0 0 0 0 0 -151 0 0 0 0 0 0 0 0 0 0 0 0 0 0 0 0 0 0 0 0 0 0 0 0 0 0 0 0 0 0 0 0 0 0 0 0 0 0
0 0 0 0 0 0 0 0 0 -334 -365 -98 0 0 0 0 0 0 0 0 0 0 0 0 0 0 0 0 0 0 0 0 0 0 0 0 0 0 0 0 0 0 0 0 0 0 0 0 0
Wind_Speed
7 6 2 3 4 5 3 6 1 2 2 2 3 5 7 5 7 7 5 3 6 2 7 9 14 14 14 15 15 14 13 13 12 12 12 11 10 11 11 10 10 10 11 10 9 7 5 3 4
4 4 3 3 5 3 6 4 6 6 3 4 4 2 2 2 2 1 0 3 6 6 6 6 13 16 16 16 16 15 14 14 14 14 14 12 11 11 12 11 11 10 11 12 11 10 7 5 5
5 3 4 4 3 5 6 6 7 3 3 3 3 2 2 2 2 6 6 7 6 6 7 8 18 16 15 16 15 14 15 16 16 16 15 14 12 11 11 11 11 11 11 13 13 11 10 7 6
3 4 4 4 5 7 7 6 4 2 1 4 3 2 1 3 4 7 6 4 4 6 3 6 14 14 16 15 15 15 17 17 18 18 16 15 14 14 12 11 9 10 12 14 13 13 12 9 7
4 3 3 1 5 5 6 4 7 6 1 2 3 3 2 3 0 5 5 3 7 4 4 5 10 12 14 15 16 16 18 19 18 19 18 17 17 15 14 14 12 12 13 13 16 12 12 10 7
4 3 4 3 6 5 5 5 6 5 4 2 3 5 4 3 3 5 5 7 5 5 3 2 6 12 13 15 15 16 17 18 18 19 19 18 18 18 16 15 14 12 13 15 16 15 13 10 7
5 4 4 4 6 6 5 6 6 6 3 4 7 5 3 1 3 5 6 6 5 5 3 1 3 5 7 8 10 10 12 13 13 17 21 18 18 19 17 15 13 13 14 15 17 14 13 10 8
5 5 3 4 5 8 5 5 2 6 6 3 5 5 5 4 6 6 7 6 4 3 2 3 1 3 3 5 9 11 12 14 12 14 13 14 18 20 20 16 15 13 15 14 16 14 15 11 9
3 4 3 6 4 8 0 3 1 1 6 1 1 4 1 8 6 5 3 3 2 1 2 1 1 2 4 3 4 7 10 12 11 10 10 7 2 4 10 12 14 14 14 14 16 15 15 13 10
5 3 8 7 6 6 4 5 7 3 3 1 2 4 5 5 4 5 3 1 3 5 3 2 2 3 4 3 3 4 5 4 4 4 5 4 3 3 5 9 16 14 15 14 14 16 16 13 3
6 6 7 8 8 7 5 2 4 6 4 8 10 9 5 4 5 5 1 1 3 4 2 4 2 3 3 3 3 2 2 3 3 4 5 4 3 2 2 1 1 1 4 3 6 8 4 5 4
3 10 6 8 8 7 7 6 5 5 8 4 8 9 6 7 6 5 3 2 4 4 4 5 3 4 4 3 3 3 3 3 3 3 4 3 2 3 3 2 3 2 2 3 3 3 4 5 5
6 5 1 3 7 4 7 5 4 8 4 5 9 7 9 8 6 4 4 2 4 4 5 4 4 4 4 4 3 3 4 4 3 3 4 2 2 3 3 3 3 3 2 2 2 4 5 5 5
7 5 2 2 1 2 6 1 2 6 6 7 9 9 7 8 7 4 4 2 3 4 5 4 4 3 4 4 5 4 3 4 4 3 4 4 3 3 3 3 4 3 3 2 3 5 5 5 5
3 2 5 1 4 3 4 4 10 4 7 8 9 6 6 7 7 6 3 4 3 2 4 4 4 3 4 5 5 4 3 3 2 3 4 4 4 4 3 3 3 3 3 3 3 3 5 5 5
4 5 3 4 5 3 6 11 6 9 11 10 8 7 7 6 6 5 5 4 3 1 4 4 4 4 5 5 4 3 3 2 3 3 3 4 4 4 3 3 3 3 4 4 4 5 6 4 7
7 3 4 6 7 3 5 9 3 6 11 9 8 7 7 6 4 4 6 5 2 1 4 3 4 4 5 6 5 4 4 3 3 3 3 4 3 2 4 3 4 7 5 5 6 5 7 6 6
4 3 3 4 3 3 3 14 6 6 10 9 9 8 7 7 7 6 6 5 3 1 4 3 4 4 5 4 4 3 2 3 3 3 2 1 2 3 5 4 5 4 6 7 5 8 6 7 8
4 3 5 4 5 5 8 10 16 6 6 8 9 9 8 8 6 5 5 5 4 1 3 4 5 5 3 3 3 3 3 3 3 3 3 1 2 3 4 4 4 4 5 8 8 9 11 7 11
3 3 5 6 3 6 8 10 8 7 9 11 13 10 9 6 6 5 5 3 3 2 4 3 4 4 4 2 2 1 2 2 1 2 5 5 4 6 3 6 5 5 6 8 8 9 8 9 7
5 4 5 7 2 3 1 7 6 5 3 4 6 7 6 10 9 7 6 5 4 2 3 3 4 5 4 5 2 3 2 2 2 3 2 3 6 7 7 7 6 7 6 5 8 6 12 9 7
4 8 5 4 2 5 4 7 7 6 6 7 9 10 12 10 6 6 6 5 6 3 2 3 3 4 3 5 3 4 2 2 2 1 2 3 5 8 8 8 6 7 7 7 7 4 6 12 9
10 4 5 3 4 2 2 3 8 2 7 11 12 13 12 11 10 9 9 8 7 4 1 1 3 4 3 2 3 3 4 3 2 1 3 4 4 7 6 6 7 7 6 7 8 7 7 6 4
3 3 6 5 4 2 8 8 6 5 9 7 4 12 13 13 9 8 7 5 5 4 1 2 3 3 3 1 2 4 3 3 3 4 5 5 4 4 5 5 5 6 7 8 7 7 10 7 7
5 7 4 6 4 7 3 4 10 9 10 9 8 14 15 13 10 9 8 7 5 6 5 2 3 1 1 2 2 1 3 4 5 4 3 4 3 3 3 2 3 4 6 7 8 7 7 5 5
7 10 7 6 3 6 3 5 9 7 6 8 7 10 13 13 11 9 9 8 7 7 6 4 4 2 0 1 1 1 2 2 3 3 3 3 3 3 2 0 1 6 4 6 6 6 5 4 5
5 5 6 5 1 2 4 8 11 4 4 4 7 11 14 14 10 11 8 8 7 7 7 7 5 4 2 2 1 1 1 2 4 5 3 2 3 3 5 1 3 5 5 4 6 4 4 4 3
10 7 2 3 2 4 4 5 8 9 4 5 6 9 11 10 9 8 8 8 7 6 4 6 5 6 4 2 2 1 0 2 4 4 4 1 2 2 5 4 5 6 6 7 6 4 5 6 3
3 3 5 5 5 6 3 8 7 6 9 9 9 10 14 16 14 11 9 7 7 4 6 6 6 5 4 3 2 2 1 3 4 5 5 4 4 4 6 6 6 6 8 8 7 6 7 7 6
7 11 9 6 5 3 5 9 6 7 9 6 8 9 8 9 14 11 10 8 7 7 6 7 6 6 5 4 3 3 3 3 4 5 5 3 6 4 6 6 8 6 6 5 8 8 6 9 9
Wind_Direction
146 155 183 21 48 61 276 264 271 240 295 209 123 149 186 153 163 212 276 216 259 229 187 203 200 203 216 217 223 228 229 234 242 251 254 251 251 255 264 266 270 265 258 251 249 255 253 265 305
128 155 40 78 81 43 274 248 222 218 210 101 98 72 103 215 131 188 33 249 201 217 189 189 203 209 216 221 226 228 231 238 245 253 255 251 247 247 251 255 259 262 262 249 247 251 244 237 260
138 60 75 85 105 201 230 231 210 249 213 174 129 57 158 194 133 182 232 207 204 208 186 201 212 216 223 228 235 236 242 246 249 253 256 253 244 241 245 254 259 261 263 260 241 241 246 234 240
102 25 41 95 225 261 218 247 197 250 253 201 150 177 308 210 175 193 207 204 215 235 202 224 223 226 231 236 241 245 248 252 255 256 256 253 245 239 238 243 248 269 269 260 256 230 240 242 230
37 60 47 12 252 248 257 257 171 186 239 210 148 206 219 283 247 44 354 314 208 213 219 221 228 235 240 245 253 253 256 258 260 263 257 248 237 234 236 243 249 258 270 257 259 250 228 230 224
62 103 44 303 274 277 259 196 163 189 207 174 104 135 233 300 58 7 64 53 61 146 145 198 244 250 243 251 263 276 280 280 267 261 260 242 236 232 233 237 239 251 259 264 243 253 230 217 216
120 101 213 243 270 298 233 153 192 186 182 232 155 144 253 138 87 75 69 60 53 74 66 16 309 328 346 331 310 307 311 308 302 282 256 247 236 234 238 236 240 246 252 257 244 249 236 222 213
123 101 139 241 252 264 223 182 216 152 216 94 143 199 229 170 117 87 54 37 51 26 347 254 258 357 340 325 315 308 312 307 301 303 285 266 253 244 234 235 239 247 247 252 242 242 233 217 209
132 74 217 248 197 249 217 162 278 10 129 113 219 152 181 120 122 85 42 11 2 291 302 267 294 342 348 297 309 325 313 305 307 306 304 300 315 291 261 253 247 234 247 249 241 238 226 212 200
116 136 219 198 197 235 211 190 175 171 140 85 64 63 87 94 106 116 115 13 327 311 310 281 300 335 320 305 318 306 304 299 280 301 299 279 259 247 244 234 242 236 246 240 242 226 212 204 169
185 201 210 230 211 184 191 235 177 132 254 210 195 165 136 118 126 143 179 258 288 281 282 323 299 301 297 299 301 299 269 258 262 251 262 271 271 231 259 223 294 70 278 296 242 214 188 157 162
180 239 187 252 184 147 185 133 199 201 228 218 168 148 142 156 167 171 202 252 262 292 305 332 319 315 303 295 311 299 293 285 273 262 259 258 262 231 208 188 206 201 230 261 221 180 150 153 154
190 259 199 241 157 170 119 198 193 239 323 118 125 145 157 164 175 203 208 237 276 307 323 320 316 320 318 319 313 297 295 290 293 279 258 243 246 203 184 193 182 192 185 208 175 148 162 150 151
210 202 56 52 158 169 152 190 143 240 139 135 148 175 168 165 185 194 190 214 290 318 316 322 284 299 338 314 298 292 282 266 267 257 249 234 231 205 189 189 189 185 191 172 170 154 151 146 152
84 118 37 247 149 236 113 305 237 193 158 162 178 162 161 191 202 185 204 199 261 343 307 313 299 306 341 312 291 281 277 284 293 273 270 257 234 232 206 184 185 181 169 157 157 135 123 130 159
95 53 98 278 149 252 140 263 264 186 164 188 174 167 173 194 207 185 211 224 247 50 302 316 342 338 334 302 287 289 305 306 282 271 274 274 267 234 201 179 194 160 156 151 137 127 124 144 171
10 224 207 310 201 129 173 264 282 173 182 183 172 174 178 194 207 209 219 234 246 79 301 333 348 320 306 301 293 309 315 308 306 326 319 309 278 194 176 161 155 156 141 134 128 135 133 154 132
236 235 230 243 244 183 224 264 256 199 199 192 171 173 184 193 207 207 217 232 263 19 308 317 321 319 321 296 293 320 312 337 25 0 339 40 10 116 131 98 101 110 132 138 133 135 127 140 128
198 202 248 268 243 180 236 252 274 206 205 184 184 179 188 200 210 208 223 235 278 231 312 329 320 337 343 327 331 342 334 344 22 339 20 317 100 80 96 107 111 114 137 136 137 124 140 135 129
164 227 267 274 277 159 272 271 265 185 223 201 188 183 186 185 178 203 219 219 281 310 275 314 313 355 344 308 301 296 313 25 344 335 9 5 49 105 97 114 118 114 131 117 129 134 141 129 139
202 173 232 239 315 240 171 308 300 267 250 172 182 179 169 185 182 198 202 217 261 306 294 295 301 332 330 335 326 340 329 72 39 349 32 8 61 72 63 83 87 79 111 101 118 141 140 129 122
253 216 228 268 45 269 132 270 285 279 274 226 193 184 182 183 179 195 191 200 225 242 276 19 349 338 337 338 45 50 21 34 347 355 356 47 60 68 67 58 68 79 93 95 120 84 120 136 130
231 140 194 227 207 106 274 71 262 352 283 256 212 194 185 179 178 192 192 204 219 233 236 20 1 20 8 337 78 73 31 34 345 54 102 58 53 67 72 74 68 74 81 99 102 94 97 119 100
169 106 48 55 95 50 234 156 279 215 214 256 175 188 185 173 183 197 194 198 220 227 198 69 25 359 44 290 56 72 49 48 76 21 22 20 42 67 52 67 78 88 99 108 96 83 87 88 93
93 70 341 342 10 223 105 97 233 252 241 228 221 189 175 169 176 189 186 201 211 208 202 149 88 8 44 245 295 19 44 45 69 86 93 48 37 55 97 106 71 56 89 99 115 81 84 82 97
180 153 157 227 225 259 136 233 252 227 290 272 214 177 157 163 179 185 188 196 200 211 201 181 137 140 268 174 201 21 80 59 53 71 80 67 52 84 110 127 108 98 108 117 115 104 102 122 137
179 153 198 133 167 61 243 289 312 255 356 26 113 144 167 167 178 185 190 196 200 211 201 185 172 151 204 194 196 187 306 83 73 69 83 88 89 88 106 144 230 118 138 138 118 125 129 131 127
165 162 110 15 193 231 281 286 241 292 288 166 163 181 172 161 177 184 190 196 208 215 180 180 189 170 179 183 166 197 224 37 54 66 87 135 70 41 103 99 110 104 117 127 124 131 143 129 145
124 161 57 122 146 181 235 259 220 238 244 222 193 189 180 175 180 183 194 194 205 196 181 181 182 174 172 187 156 143 56 66 56 65 63 73 64 60 88 99 82 91 116 124 127 121 128 123 111
205 186 165 155 232 214 181 263 247 264 278 202 162 191 175 192 179 175 189 179 186 204 180 179 180 177 187 181 149 142 108 73 68 69 68 65 88 56 75 81 84 76 73 86 111 111 114 119 119